QPF
0.00 0.00 0.00 0.00 0.00 0.00 0.00 0.00 0.00 0.00 0.00 0.00 0.05 0.13 0.18 0.21 0.21 0.29 0.28 0.21 0.11 0.06 0.05 0.06 0.06 0.04 0.03 0.10 0.23 0.18 0.06 0.01 0.00 0.00 0.02 0.02 0.09 0.12 0.19 0.14 0.05 0.05 0.02
0.00 0.00 0.00 0.00 0.00 0.00 0.00 0.00 0.00 0.00 0.00 0.01 0.05 0.03 0.05 0.06 0.13 0.11 0.13 0.11 0.07 0.03 0.00 0.01 0.00 0.01 0.03 0.06 0.11 0.12 0.06 0.03 0.01 0.01 0.04 0.03 0.07 0.16 0.08 0.02 0.03 0.07 0.03
0.00 0.00 0.00 0.00 0.00 0.00 0.00 0.00 0.00 0.00 0.00 0.02 0.07 0.01 0.04 0.06 0.07 0.06 0.02 0.01 0.01 0.01 0.00 0.00 0.00 0.01 0.02 0.01 0.01 0.01 0.01 0.03 0.07 0.03 0.03 0.09 0.09 0.12 0.11 0.02 0.00 0.00 0.01
0.00 0.00 0.00 0.00 0.00 0.01 0.01 0.00 0.00 0.00 0.00 0.00 0.00 0.00 0.00 0.00 0.01 0.01 0.01 0.14 0.14 0.06 0.03 0.03 0.03 0.03 0.02 0.02 0.04 0.02 0.01 0.04 0.05 0.06 0.07 0.10 0.07 0.09 0.10 0.05 0.01 0.00 0.00
0.00 0.00 0.00 0.00 0.00 0.01 0.01 0.01 0.00 0.00 0.00 0.00 0.00 0.00 0.00 0.00 0.00 0.00 0.01 0.03 0.11 0.15 0.14 0.12 0.11 0.10 0.07 0.05 0.05 0.06 0.04 0.05 0.06 0.03 0.02 0.07 0.11 0.13 0.19 0.13 0.02 0.01 0.00
0.00 0.00 0.00 0.00 0.00 0.00 0.00 0.00 0.01 0.01 0.01 0.01 0.01 0.00 0.00 0.00 0.00 0.00 0.00 0.01 0.02 0.04 0.07 0.12 0.11 0.11 0.09 0.07 0.06 0.04 0.02 0.02 0.02 0.04 0.08 0.09 0.08 0.06 0.06 0.06 0.04 0.01 0.00
0.01 0.00 0.00 0.00 0.00 0.00 0.00 0.01 0.02 0.02 0.02 0.01 0.00 0.00 0.00 0.00 0.00 0.00 0.00 0.00 0.00 0.00 0.00 0.01 0.01 0.01 0.00 0.00 0.00 0.00 0.00 0.01 0.02 0.05 0.08 0.05 0.03 0.04 0.02 0.01 0.01 0.00 0.00
0.02 0.03 0.01 0.00 0.00 0.01 0.02 0.07 0.05 0.02 0.00 0.00 0.00 0.00 0.00 0.00 0.00 0.00 0.03 0.00 0.00 0.00 0.00 0.00 0.00 0.00 0.00 0.00 0.00 0.00 0.00 0.00 0.00 0.01 0.01 0.01 0.01 0.00 0.00 0.00 0.00 0.00 0.00
0.01 0.04 0.01 0.00 0.00 0.01 0.05 0.07 0.01 0.00 0.00 0.00 0.00 0.00 0.00 0.00 0.00 0.00 0.00 0.00 0.00 0.00 0.00 0.00 0.00 0.00 0.00 0.00 0.00 0.00 0.00 0.00 0.00 0.00 0.00 0.00 0.00 0.00 0.00 0.00 0.00 0.00 0.00
0.00 0.00 0.00 0.00 0.01 0.03 0.04 0.01 0.00 0.00 0.00 0.00 0.00 0.00 0.00 0.00 0.00 0.00 0.00 0.00 0.00 0.00 0.00 0.00 0.00 0.00 0.00 0.00 0.00 0.00 0.00 0.00 0.00 0.00 0.00 0.00 0.00 0.00 0.00 0.00 0.01 0.02 0.02
0.00 0.00 0.01 0.01 0.01 0.01 0.00 0.00 0.00 0.00 0.00 0.00 0.00 0.00 0.00 0.00 0.00 0.00 0.00 0.00 0.00 0.00 0.00 0.00 0.00 0.00 0.00 0.00 0.00 0.00 0.00 0.00 0.00 0.00 0.00 0.00 0.00 0.00 0.00 0.03 0.06 0.03 0.02
0.02 0.02 0.03 0.03 0.01 0.02 0.02 0.01 0.00 0.00 0.00 0.00 0.00 0.01 0.02 0.02 0.02 0.02 0.01 0.01 0.01 0.02 0.04 0.03 0.03 0.05 0.04 0.02 0.01 0.01 0.00 0.00 0.00 0.00 0.00 0.00 0.00 0.00 0.00 0.00 0.00 0.00 0.00
0.03 0.03 0.04 0.03 0.07 0.05 0.03 0.01 0.00 0.00 0.01 0.00 0.00 0.01 0.02 0.03 0.05 0.09 0.04 0.01 0.03 0.05 0.08 0.10 0.09 0.04 0.02 0.01 0.01 0.01 0.01 0.01 0.01 0.00 0.00 0.00 0.00 0.00 0.00 0.00 0.00 0.00 0.00
0.02 0.05 0.11 0.21 0.08 0.02 0.00 0.00 0.00 0.00 0.00 0.00 0.00 0.01 0.02 0.01 0.00 0.01 0.01 0.00 0.00 0.01 0.02 0.02 0.01 0.00 0.00 0.00 0.00 0.00 0.00 0.00 0.00 0.00 0.00 0.00 0.00 0.00 0.00 0.00 0.00 0.00 0.00
0.01 0.01 0.02 0.00 0.00 0.00 0.00 0.00 0.00 0.00 0.00 0.00 0.00 0.00 0.00 0.00 0.00 0.00 0.00 0.00 0.00 0.00 0.00 0.00 0.00 0.00 0.00 0.00 0.00 0.00 0.00 0.00 0.00 0.00 0.00 0.00 0.00 0.00 0.00 0.00 0.00 0.00 0.00
0.00 0.00 0.00 0.00 0.00 0.00 0.00 0.00 0.00 0.00 0.00 0.00 0.00 0.00 0.00 0.00 0.00 0.00 0.00 0.00 0.00 0.00 0.00 0.00 0.00 0.00 0.00 0.00 0.00 0.00 0.00 0.00 0.00 0.00 0.00 0.00 0.00 0.00 0.00 0.00 0.00 0.00 0.00
0.00 0.00 0.00 0.00 0.00 0.00 0.00 0.00 0.00 0.00 0.00 0.00 0.00 0.00 0.00 0.00 0.00 0.00 0.00 0.00 0.00 0.00 0.00 0.00 0.00 0.00 0.00 0.00 0.00 0.00 0.00 0.00 0.00 0.00 0.00 0.00 0.00 0.00 0.00 0.00 0.00 0.00 0.00
0.00 0.00 0.00 0.00 0.00 0.00 0.00 0.00 0.00 0.00 0.00 0.00 0.00 0.00 0.00 0.00 0.00 0.00 0.00 0.00 0.00 0.00 0.00 0.00 0.00 0.00 0.00 0.00 0.00 0.00 0.00 0.00 0.00 0.00 0.00 0.00 0.00 0.00 0.00 0.00 0.00 0.00 0.00
0.00 0.00 0.00 0.00 0.00 0.00 0.00 0.00 0.00 0.00 0.00 0.00 0.00 0.00 0.00 0.00 0.00 0.00 0.00 0.00 0.00 0.00 0.00 0.00 0.00 0.00 0.00 0.00 0.00 0.00 0.00 0.00 0.00 0.00 0.00 0.00 0.00 0.00 0.00 0.00 0.00 0.00 0.00
0.00 0.00 0.00 0.00 0.00 0.00 0.00 0.00 0.00 0.00 0.00 0.00 0.00 0.00 0.00 0.00 0.00 0.00 0.00 0.00 0.00 0.00 0.00 0.00 0.00 0.00 0.00 0.00 0.00 0.00 0.00 0.00 0.00 0.00 0.00 0.00 0.00 0.00 0.00 0.00 0.00 0.00 0.00
0.00 0.00 0.00 0.00 0.00 0.00 0.00 0.00 0.00 0.00 0.00 0.00 0.00 0.00 0.00 0.00 0.00 0.00 0.00 0.00 0.00 0.00 0.00 0.00 0.00 0.00 0.00 0.00 0.00 0.00 0.00 0.00 0.00 0.00 0.00 0.00 0.00 0.00 0.00 0.00 0.00 0.00 0.00
0.00 0.00 0.00 0.00 0.00 0.00 0.00 0.00 0.00 0.00 0.00 0.00 0.00 0.00 0.00 0.00 0.00 0.00 0.00 0.00 0.00 0.00 0.00 0.00 0.00 0.00 0.00 0.00 0.00 0.00 0.00 0.00 0.00 0.00 0.00 0.00 0.00 0.00 0.00 0.00 0.00 0.00 0.00
0.00 0.00 0.00 0.00 0.00 0.00 0.00 0.00 0.00 0.00 0.00 0.00 0.00 0.00 0.00 0.00 0.00 0.00 0.00 0.00 0.00 0.00 0.00 0.00 0.00 0.00 0.00 0.00 0.00 0.00 0.00 0.00 0.00 0.00 0.00 0.00 0.00 0.00 0.00 0.00 0.00 0.00 0.00
0.00 0.00 0.00 0.00 0.00 0.00 0.00 0.00 0.00 0.00 0.00 0.00 0.00 0.00 0.00 0.00 0.00 0.00 0.00 0.00 0.00 0.00 0.00 0.00 0.00 0.00 0.00 0.00 0.00 0.00 0.00 0.00 0.00 0.00 0.00 0.00 0.00 0.00 0.00 0.00 0.00 0.00 0.00
0.00 0.00 0.00 0.00 0.00 0.00 0.00 0.00 0.00 0.00 0.00 0.00 0.00 0.00 0.00 0.00 0.00 0.00 0.00 0.00 0.00 0.00 0.00 0.00 0.00 0.00 0.00 0.00 0.00 0.00 0.00 0.00 0.00 0.00 0.00 0.00 0.00 0.00 0.00 0.00 0.00 0.00 0.00
0.00 0.00 0.00 0.00 0.00 0.00 0.00 0.00 0.00 0.00 0.00 0.00 0.00 0.00 0.00 0.00 0.00 0.00 0.00 0.00 0.00 0.00 0.00 0.00 0.00 0.00 0.00 0.00 0.00 0.00 0.00 0.00 0.00 0.00 0.00 0.00 0.00 0.00 0.00 0.00 0.00 0.00 0.00
MSLP
1012.03 1012.31 1012.62 1012.79 1012.77 1012.78 1012.70 1012.50 1012.21 1012.09 1012.03 1011.99 1011.84 1011.92 1012.00 1012.17 1012.47 1013.00 1013.41 1013.96 1014.70 1015.28 1015.70 1015.97 1016.34 1016.82 1017.07 1016.79 1016.66 1016.52 1016.15 1015.80 1016.25 1016.52 1016.51 1016.25 1016.25 1016.58 1017.04 1017.24 1017.78 1018.08 1018.29
1011.95 1012.11 1012.52 1012.74 1012.70 1012.78 1012.85 1012.76 1012.68 1012.61 1012.55 1012.54 1012.54 1012.55 1012.61 1012.73 1012.90 1013.42 1014.00 1014.57 1015.03 1015.57 1015.87 1016.11 1016.41 1016.84 1017.18 1017.44 1017.35 1017.35 1017.21 1016.11 1015.89 1016.58 1016.68 1016.68 1016.77 1017.09 1017.32 1018.01 1018.24 1018.75 1018.67
1011.75 1012.04 1012.45 1012.65 1012.75 1012.95 1013.01 1013.16 1013.16 1013.13 1013.22 1013.18 1013.14 1013.37 1013.60 1013.81 1013.85 1014.32 1014.79 1015.31 1015.81 1016.19 1016.35 1016.46 1016.77 1016.74 1017.15 1017.31 1017.43 1017.25 1016.75 1016.69 1016.56 1016.80 1016.93 1016.89 1017.31 1017.66 1017.98 1018.22 1018.63 1019.21 1019.05
1011.68 1011.96 1012.24 1012.45 1012.52 1012.85 1013.13 1013.33 1013.51 1013.72 1013.78 1013.90 1014.02 1014.17 1014.40 1014.73 1015.01 1015.26 1015.48 1015.96 1016.37 1016.71 1016.85 1016.98 1017.10 1017.12 1017.25 1017.38 1017.48 1017.56 1017.45 1017.52 1017.44 1017.61 1017.75 1017.78 1017.87 1018.20 1018.35 1018.81 1019.25 1019.40 1019.59
1011.55 1011.84 1012.15 1012.27 1012.43 1012.72 1013.16 1013.40 1013.76 1014.05 1014.37 1014.58 1014.76 1014.93 1015.16 1015.41 1015.68 1015.88 1016.10 1016.42 1016.67 1016.85 1017.03 1017.14 1017.34 1017.51 1017.84 1018.02 1017.91 1018.10 1017.99 1018.06 1018.12 1018.39 1018.40 1018.45 1018.71 1018.82 1019.16 1019.12 1019.32 1019.41 1019.84
1011.15 1011.79 1012.06 1012.34 1012.43 1012.85 1013.34 1013.68 1014.04 1014.45 1014.90 1015.14 1015.42 1015.71 1015.98 1016.24 1016.35 1016.38 1016.54 1016.91 1017.26 1017.53 1017.88 1018.15 1018.28 1018.30 1018.38 1018.51 1018.61 1018.60 1018.52 1018.42 1018.36 1018.48 1018.73 1019.12 1019.52 1019.47 1019.41 1019.39 1019.43 1019.50 1020.15
1011.02 1011.41 1012.03 1012.43 1012.73 1013.10 1013.66 1014.20 1014.72 1015.28 1015.55 1016.05 1016.47 1016.74 1017.16 1017.15 1016.93 1016.98 1017.10 1017.43 1017.77 1018.06 1018.33 1018.56 1018.59 1018.76 1018.99 1019.20 1019.17 1019.05 1019.02 1018.78 1018.60 1018.43 1019.56 1020.07 1020.20 1020.38 1019.96 1019.79 1019.91 1020.04 1020.34
1011.47 1011.84 1012.05 1012.45 1013.00 1013.73 1014.41 1014.99 1015.47 1015.95 1016.36 1016.83 1017.36 1017.68 1017.75 1017.80 1017.29 1017.39 1017.73 1018.14 1018.59 1018.90 1019.05 1019.15 1019.16 1019.12 1019.16 1019.42 1019.59 1019.58 1019.68 1019.70 1019.81 1019.78 1020.13 1020.41 1020.49 1020.38 1020.21 1020.20 1020.33 1020.34 1020.63
1011.82 1012.06 1012.79 1012.92 1013.59 1014.17 1015.02 1015.88 1016.45 1016.74 1017.33 1017.93 1018.32 1018.33 1018.30 1018.37 1017.98 1017.98 1018.22 1018.77 1019.37 1019.96 1020.09 1019.94 1019.72 1019.57 1019.74 1019.69 1019.80 1020.27 1020.43 1020.67 1020.74 1020.65 1020.61 1020.50 1020.49 1020.54 1020.56 1020.52 1020.95 1021.04 1021.39
1012.98 1013.15 1013.60 1013.70 1014.40 1015.06 1015.83 1016.48 1017.16 1017.57 1018.14 1018.64 1019.20 1019.51 1019.33 1019.09 1018.72 1018.59 1018.75 1019.19 1019.75 1020.32 1020.75 1020.86 1020.70 1020.50 1020.27 1020.43 1020.60 1020.64 1020.92 1021.27 1021.15 1020.90 1020.88 1020.97 1021.07 1021.12 1021.23 1021.45 1021.91 1022.36 1022.65
1014.16 1014.26 1014.72 1015.03 1015.59 1016.25 1016.90 1017.68 1018.15 1018.51 1018.98 1019.59 1020.03 1020.40 1020.35 1020.05 1019.89 1019.39 1019.49 1019.97 1020.49 1021.17 1021.69 1021.94 1021.85 1021.37 1021.44 1021.59 1021.72 1021.91 1021.99 1021.53 1021.50 1021.41 1021.31 1021.41 1021.65 1021.60 1021.89 1022.11 1022.27 1022.24 1022.61
1015.33 1015.40 1015.72 1016.09 1016.80 1017.32 1017.68 1018.51 1019.21 1019.45 1019.90 1020.64 1020.91 1021.09 1021.33 1021.21 1020.84 1020.74 1020.87 1021.08 1021.27 1021.42 1022.29 1022.75 1022.75 1022.40 1022.30 1022.29 1022.25 1022.44 1022.40 1021.85 1021.75 1021.82 1021.93 1021.88 1021.90 1022.03 1021.86 1021.93 1021.77 1021.51 1021.97
1016.42 1016.60 1016.87 1017.14 1017.88 1018.25 1018.44 1019.27 1019.93 1020.20 1020.63 1021.24 1021.44 1021.70 1022.30 1022.20 1022.07 1021.94 1021.91 1022.11 1022.10 1022.36 1022.72 1023.03 1023.17 1023.14 1022.84 1022.67 1022.63 1022.51 1022.58 1022.67 1022.54 1022.83 1022.86 1022.81 1022.44 1022.33 1021.88 1021.97 1022.07 1022.00 1022.00
1017.11 1017.57 1017.88 1018.26 1018.61 1018.98 1019.44 1020.13 1020.39 1020.90 1021.46 1021.61 1022.00 1022.37 1022.69 1022.97 1022.81 1022.90 1022.89 1023.12 1022.87 1022.95 1023.05 1023.28 1023.34 1023.38 1023.32 1022.95 1022.98 1023.11 1023.17 1023.17 1023.26 1023.30 1023.27 1023.11 1023.08 1022.81 1022.69 1022.61 1022.69 1022.58 1022.62
1017.98 1018.52 1019.01 1019.56 1020.03 1020.17 1020.64 1021.03 1021.29 1021.72 1021.95 1022.09 1022.46 1022.70 1022.94 1023.46 1023.62 1023.61 1023.67 1023.66 1023.50 1023.47 1023.38 1023.45 1023.59 1023.82 1023.80 1023.71 1023.77 1023.76 1023.79 1023.76 1023.76 1023.66 1023.66 1023.68 1023.70 1023.43 1023.32 1023.12 1023.06 1023.10 1023.12
1018.60 1019.13 1019.58 1019.97 1020.56 1020.93 1021.38 1022.02 1022.28 1022.28 1022.50 1022.45 1022.39 1022.74 1023.25 1023.41 1023.60 1023.74 1023.77 1023.67 1023.49 1023.49 1023.68 1023.95 1024.12 1024.16 1024.19 1024.24 1024.34 1024.36 1024.11 1024.02 1024.06 1024.10 1024.09 1024.08 1024.21 1024.14 1024.01 1023.61 1023.42 1023.49 1023.45
1018.97 1019.49 1019.90 1020.24 1020.78 1021.34 1021.83 1022.26 1022.75 1023.14 1022.94 1023.00 1023.10 1023.20 1023.21 1023.49 1023.52 1023.58 1023.61 1023.61 1023.35 1023.58 1023.95 1024.07 1024.22 1024.31 1024.37 1024.42 1024.49 1024.50 1024.72 1024.45 1024.41 1024.43 1024.42 1024.43 1024.36 1024.31 1024.33 1024.24 1024.05 1023.91 1023.81
1018.92 1019.24 1019.76 1020.26 1020.68 1021.14 1021.55 1021.92 1022.33 1022.70 1023.17 1023.54 1023.46 1023.43 1023.53 1023.55 1023.56 1023.65 1023.69 1023.34 1023.75 1023.89 1023.81 1024.07 1024.29 1024.49 1024.61 1024.66 1024.65 1024.64 1024.62 1024.63 1024.64 1024.66 1024.66 1024.67 1024.58 1024.65 1024.68 1024.54 1024.34 1024.24 1023.96
1019.07 1019.46 1019.75 1020.15 1020.39 1020.79 1021.22 1021.73 1022.10 1022.45 1022.93 1023.33 1023.68 1023.78 1023.80 1023.69 1023.67 1023.78 1023.96 1024.11 1024.16 1023.96 1023.85 1024.00 1024.03 1024.25 1024.39 1024.43 1024.55 1024.59 1024.65 1024.74 1024.69 1024.91 1025.02 1024.88 1024.83 1024.82 1024.90 1024.67 1024.52 1024.32 1024.09
1018.82 1018.78 1018.98 1019.36 1019.72 1020.35 1020.91 1021.49 1021.88 1022.38 1022.90 1023.21 1023.49 1023.62 1023.63 1023.82 1023.97 1023.93 1023.82 1024.00 1023.81 1023.89 1023.95 1024.14 1024.14 1024.03 1024.18 1024.40 1024.57 1024.57 1024.58 1024.70 1024.90 1025.15 1025.11 1025.15 1025.10 1024.96 1024.99 1024.86 1024.66 1024.56 1024.28
1018.13 1018.30 1018.32 1018.78 1019.37 1019.68 1020.19 1020.61 1020.99 1021.66 1022.39 1022.88 1023.08 1022.93 1023.08 1023.55 1023.64 1023.70 1023.70 1023.64 1023.72 1023.94 1023.98 1023.97 1024.11 1024.12 1024.33 1024.45 1024.51 1024.58 1024.68 1024.97 1024.96 1025.09 1025.28 1025.41 1025.35 1025.37 1025.06 1024.75 1024.62 1024.42 1024.21
1017.96 1018.16 1018.43 1018.96 1019.33 1019.81 1020.20 1020.49 1020.76 1021.13 1021.95 1022.34 1022.58 1022.64 1022.82 1023.12 1023.13 1023.15 1023.33 1023.53 1023.71 1023.87 1023.85 1023.88 1024.03 1024.15 1024.36 1024.25 1024.31 1024.46 1024.64 1025.14 1025.17 1025.20 1025.38 1025.47 1025.43 1025.41 1025.16 1024.86 1024.66 1024.47 1024.16
1017.76 1017.99 1018.40 1018.75 1019.16 1019.66 1020.15 1020.40 1020.73 1020.96 1021.38 1021.76 1021.93 1022.20 1022.41 1022.69 1022.86 1022.97 1023.27 1023.51 1023.54 1023.70 1023.62 1023.71 1024.07 1024.35 1024.26 1024.27 1024.17 1024.35 1024.72 1025.08 1025.20 1025.24 1025.43 1025.46 1025.49 1025.40 1025.22 1024.97 1024.79 1024.51 1024.19
1017.67 1017.88 1018.16 1018.56 1019.06 1019.52 1019.90 1020.20 1020.40 1020.51 1020.69 1021.15 1021.49 1021.76 1022.12 1022.35 1022.59 1022.80 1023.11 1023.23 1023.26 1023.34 1023.44 1023.81 1023.92 1024.08 1024.25 1024.56 1024.70 1024.82 1024.91 1025.00 1025.06 1025.13 1025.15 1025.38 1025.43 1025.29 1025.11 1024.97 1024.74 1024.31 1024.11
1017.87 1017.81 1018.02 1018.35 1018.66 1019.08 1019.42 1019.66 1019.89 1020.22 1020.34 1020.50 1021.02 1021.24 1021.46 1021.75 1022.19 1022.48 1022.81 1022.93 1023.03 1023.30 1023.50 1023.63 1023.81 1024.09 1024.36 1024.63 1024.86 1025.02 1025.10 1025.11 1025.11 1025.08 1025.21 1025.26 1025.32 1025.22 1025.12 1024.82 1024.46 1024.20 1023.93
1018.03 1018.04 1017.94 1018.24 1018.51 1018.62 1018.76 1018.98 1019.37 1019.76 1020.02 1020.04 1020.32 1020.72 1021.03 1021.38 1021.66 1022.03 1022.41 1022.52 1022.82 1023.31 1023.29 1023.45 1023.56 1023.89 1024.12 1024.43 1024.67 1024.91 1025.03 1025.09 1025.14 1025.15 1025.22 1025.27 1025.24 1025.05 1024.96 1024.58 1024.24 1024.02 1023.76
Thickness
5738 5734 5727 5723 5721 5717 5714 5714 5715 5715 5715 5715 5717 5716 5715 5715 5715 5714 5713 5712 5707 5705 5705 5706 5706 5704 5703 5708 5709 5710 5711 5719 5709 5711 5711 5716 5715 5711 5705 5703 5698 5696 5692
5739 5735 5728 5724 5722 5719 5715 5713 5713 5711 5710 5710 5709 5710 5710 5711 5711 5708 5706 5703 5700 5697 5698 5699 5699 5698 5695 5696 5698 5697 5699 5709 5710 5700 5703 5704 5703 5701 5697 5691 5689 5684 5682
5739 5734 5727 5723 5720 5716 5714 5711 5709 5706 5704 5703 5705 5704 5702 5702 5703 5699 5696 5693 5690 5690 5691 5692 5691 5692 5690 5691 5691 5693 5697 5698 5697 5694 5692 5694 5691 5689 5683 5679 5676 5672 5671
5737 5732 5726 5722 5719 5714 5711 5709 5705 5702 5700 5698 5698 5697 5697 5695 5693 5691 5690 5686 5684 5683 5683 5683 5684 5684 5684 5684 5684 5682 5684 5683 5683 5681 5679 5679 5679 5676 5673 5666 5660 5660 5658
5735 5730 5723 5720 5718 5713 5708 5705 5702 5699 5696 5693 5692 5691 5689 5688 5685 5683 5682 5680 5678 5677 5676 5677 5676 5675 5672 5671 5672 5670 5671 5671 5670 5667 5667 5667 5664 5661 5656 5656 5652 5653 5648
5737 5728 5724 5717 5716 5710 5703 5700 5697 5694 5690 5688 5685 5682 5680 5679 5678 5678 5677 5673 5670 5667 5665 5663 5662 5662 5661 5659 5657 5658 5659 5658 5661 5660 5657 5652 5648 5649 5650 5648 5646 5645 5639
5734 5731 5722 5716 5710 5706 5699 5694 5687 5683 5682 5678 5674 5671 5667 5666 5669 5670 5668 5665 5663 5660 5657 5655 5655 5653 5650 5647 5647 5647 5646 5649 5650 5652 5641 5637 5635 5634 5637 5637 5635 5633 5629
5727 5722 5719 5714 5706 5700 5692 5686 5680 5675 5672 5668 5663 5659 5658 5658 5661 5662 5657 5655 5650 5647 5646 5644 5643 5643 5642 5639 5637 5636 5634 5633 5632 5631 5628 5625 5625 5626 5626 5625 5623 5621 5619
5722 5717 5709 5705 5699 5694 5686 5677 5670 5666 5660 5657 5652 5651 5650 5649 5652 5652 5648 5642 5637 5630 5629 5630 5632 5632 5630 5629 5628 5624 5622 5618 5616 5616 5616 5616 5616 5615 5614 5614 5608 5605 5599
5708 5705 5699 5696 5691 5684 5676 5669 5661 5655 5650 5645 5640 5637 5639 5640 5641 5642 5640 5635 5629 5624 5619 5616 5616 5616 5617 5616 5614 5612 5611 5606 5605 5606 5606 5604 5602 5600 5597 5592 5586 5579 5574
5694 5691 5685 5680 5674 5668 5661 5654 5648 5643 5638 5632 5628 5625 5625 5627 5627 5629 5627 5623 5617 5610 5603 5600 5599 5601 5600 5598 5595 5591 5589 5592 5591 5590 5589 5588 5585 5583 5578 5574 5570 5567 5561
5681 5678 5674 5669 5660 5655 5651 5642 5635 5632 5626 5619 5616 5613 5610 5610 5612 5611 5608 5605 5602 5599 5589 5583 5583 5586 5585 5583 5581 5579 5577 5580 5578 5576 5573 5572 5570 5566 5564 5561 5558 5559 5552
5666 5663 5660 5656 5647 5642 5638 5630 5623 5620 5615 5609 5606 5603 5596 5595 5594 5594 5592 5589 5587 5582 5577 5574 5571 5571 5571 5571 5568 5567 5564 5562 5562 5557 5553 5552 5552 5549 5550 5546 5542 5538 5536
5655 5650 5646 5640 5634 5631 5625 5618 5614 5608 5602 5599 5594 5590 5586 5582 5582 5579 5577 5573 5573 5572 5569 5565 5563 5560 5559 5559 5555 5552 5550 5548 5544 5542 5539 5536 5534 5532 5529 5526 5522 5519 5514
5639 5633 5628 5623 5616 5612 5608 5603 5600 5594 5592 5589 5583 5580 5578 5573 5569 5567 5566 5563 5562 5561 5560 5557 5553 5549 5547 5544 5540 5537 5534 5532 5528 5525 5520 5516 5512 5509 5506 5504 5501 5497 5493
5626 5620 5616 5611 5604 5599 5594 5587 5584 5583 5582 5580 5577 5574 5568 5566 5562 5560 5559 5558 5556 5554 5550 5545 5541 5538 5535 5531 5527 5523 5520 5516 5510 5505 5500 5495 5489 5484 5480 5479 5476 5473 5468
5614 5609 5605 5601 5595 5588 5582 5578 5573 5569 5571 5570 5567 5565 5562 5560 5557 5555 5553 5552 5550 5546 5540 5536 5531 5527 5522 5517 5511 5506 5500 5496 5491 5485 5479 5473 5468 5464 5458 5454 5451 5448 5443
5608 5603 5598 5594 5589 5583 5578 5573 5569 5566 5561 5557 5557 5556 5554 5552 5550 5548 5547 5546 5539 5534 5531 5525 5518 5512 5505 5499 5494 5488 5482 5475 5468 5462 5457 5451 5445 5440 5435 5431 5428 5426 5423
5597 5593 5589 5584 5581 5578 5573 5567 5565 5564 5559 5552 5550 5548 5546 5544 5542 5539 5535 5529 5525 5524 5520 5514 5507 5498 5490 5483 5476 5470 5464 5457 5450 5441 5437 5433 5427 5422 5416 5412 5409 5409 5406
5591 5591 5588 5584 5581 5576 5572 5568 5564 5559 5553 5546 5543 5542 5540 5537 5532 5529 5526 5520 5516 5509 5503 5498 5493 5487 5478 5467 5459 5455 5450 5444 5434 5424 5421 5415 5410 5406 5400 5395 5391 5387 5387
5589 5587 5586 5583 5578 5575 5570 5566 5563 5561 5553 5546 5543 5540 5536 5529 5525 5520 5516 5511 5504 5495 5487 5481 5474 5470 5462 5454 5446 5440 5435 5427 5419 5412 5406 5401 5397 5391 5387 5385 5381 5378 5378
5582 5580 5577 5573 5571 5566 5562 5559 5557 5552 5545 5539 5535 5531 5527 5521 5517 5512 5505 5497 5490 5481 5474 5467 5461 5455 5450 5445 5438 5430 5423 5412 5406 5402 5397 5391 5387 5382 5379 5377 5374 5373 5374
5576 5574 5570 5566 5563 5559 5555 5552 5549 5546 5542 5535 5531 5525 5519 5513 5506 5500 5493 5485 5478 5471 5465 5459 5452 5446 5440 5435 5429 5421 5412 5404 5399 5396 5391 5386 5380 5376 5373 5371 5370 5371 5372
5569 5567 5566 5563 5558 5554 5550 5547 5544 5543 5540 5533 5526 5520 5512 5506 5498 5491 5482 5476 5471 5466 5460 5452 5446 5439 5433 5426 5419 5411 5404 5398 5393 5390 5386 5381 5377 5373 5371 5369 5369 5371 5372
5558 5559 5559 5557 5557 5553 5549 5545 5542 5537 5533 5528 5520 5513 5506 5498 5489 5483 5476 5470 5465 5459 5453 5447 5441 5434 5428 5421 5415 5407 5400 5394 5389 5385 5382 5378 5374 5372 5370 5370 5371 5372 5374
5553 5553 5554 5552 5551 5549 5547 5543 5538 5532 5526 5521 5513 5504 5497 5490 5484 5477 5471 5465 5460 5452 5448 5444 5437 5431 5426 5419 5412 5406 5399 5393 5389 5385 5382 5378 5376 5374 5373 5374 5375 5375 5377